User: anonymous   Login
Location: Walnut Point State Park
(39.6958°N, 88.0345°W)
Time: 05:41:02
(UTC-05:00)
Language:

Iridium 75 - Orbit

View from above orbital plane
View from above orbital plane
View from above satellite
View from above satellite

Ground track
Ground track

The orbit data is extracted from the following two-line orbital elements,

1 25346U 98032E   14303.44097484  .00000550  00000-0  18922-3 0   427
2 25346 086.3951 265.6444 0002184 102.0368 012.7982 14.34223406861968
Epoch (UTC): 30 October 2014 10:35:00
Eccentricity: 0.0002184
inclination: 86.3951°
perigee height: 776 km
apogee height: 779 km
right ascension of ascending node: 265.6444°
argument of perigee: 102.0368°
revolutions per day: 14.34223406
mean anomaly at epoch: 12.7982°
orbit number at epoch: 86196

The dashed part of the orbit path shows where the satellite is in the earth's shadow,  

DLR